sat.trackr.live / text

‹ back to catalog

FLOCK 4BE-7

NORAD 60481 · 2024-149P

PAYLOAD ACTIVE UNKNOWN

§ Identity

Operator
Country
US
Launch date
2024-08-16
Launch site
AFWTR
Launch vehicle
Mass (kg)
RCS (m²)

Purposes: earth_obs

External: N2YO · Heavens-Above · Gunter

§ Orbital elements

Epoch: 2026-05-25T03:33:47.781216Z

Period
93.55 min
Inclination
97.3758°
Eccentricity
0.0002127
Mean motion
15.39245299 rev/d
Perigee alt
446.9 km
Apogee alt
449.8 km
Semi-major
6,826.5 km
B*
5.8673e-4
RAAN
228.0392°
Arg perigee
17.4464°
Mean anomaly
342.6854°
Rev number
9,870

§ Raw data

FLOCK 4BE-71 60481U 24149P   26145.14846969  .00022796  00000+0  58673-3 0  99912 60481  97.3758 228.0392 0002127  17.4464 342.6854 15.39245299 98709

JSON: /api/v1/satellites/60481 · /tle

For live sub-satellite position, see the globe view (requires WebGL).

§ Visibility from observer

Set your observer location to see the next 7 days of passes ≥ 10°. The values pass through the URL so the page stays shareable.

No JS? Fill the form by hand. The geolocation button needs JavaScript.